DW1234 Weather Reports


Display with metric or nautical units.
time (UTC)temp
F
wind
direction
speed
MPH
gust
MPH
rain 1hr
in
rain 24hr
in
rain mn
in
humidity
%
barometer
mb
20260903171509 90 134 4.0 10.0 0.00 0.01 0.01 64 1009.0
20260903171251 90 201 4.0 9.0 0.00 0.01 0.01 65 1012.1
20260903170727 89 194 4.0 10.0 0.00 0.01 0.01 65 1012.1
20260903170240 89 130 5.0 11.0 0.00 0.01 0.01 66 1011.9
20260903170028 88 166 5.0 11.0 0.00 0.01 0.01 68 1008.9
20260903165722 88 159 8.0 11.0 0.00 0.01 0.01 68 1011.8
20260903165231 88 146 6.0 11.0 0.00 0.01 0.01 66 1011.7
20260903164723 87 153 7.0 12.0 0.00 0.01 0.01 67 1011.8
20260903164557 87 151 8.0 12.0 0.00 0.01 0.01 68 1008.8
20260903164256 87 146 7.0 11.0 0.00 0.01 0.01 70 1011.7
20260903163746 86 152 7.0 12.0 0.00 0.01 0.01 69 1011.8
20260903163222 86 144 8.0 15.0 0.00 0.01 0.01 66 1011.8
20260903163033 86 119 7.0 15.0 0.00 0.01 0.01 66 1008.9
20260903162734 86 153 9.0 15.0 0.00 0.01 0.01 66 1012.0
20260903162246 86 158 6.0 11.0 0.00 0.01 0.01 68 1012.1
20260903161757 86 184 4.0 9.0 0.00 0.01 0.01 68 1012.2
20260903161602 86 148 4.0 9.0 0.00 0.01 0.01 69 1009.2
20260903161249 86 130 7.0 9.0 0.00 0.01 0.01 70 1012.1
20260903160730 85 135 7.0 9.0 0.00 0.01 0.01 74 1012.0
20260903160241 84 130 5.0 8.0 0.00 0.01 0.01 73 1012.0
20260903160055 84 127 3.0 5.0 0.00 0.01 0.01 72 1009.1
20260903155749 84 110 3.0 4.0 0.00 0.01 0.01 73 1012.1
20260903155235 84 81 3.0 5.0 0.00 0.01 0.01 73 1012.2
20260903154747 84 63 2.0 7.0 0.00 0.01 0.01 72 1012.3
20260903154555 83 63 2.0 7.0 0.00 0.01 0.01 72 1009.3
20260903154233 84 94 4.0 7.0 0.00 0.01 0.01 72 1012.2
20260903153801 84 95 4.0 9.0 0.00 0.01 0.01 72 1012.2
20260903153224 84 17 4.0 9.0 0.00 0.01 0.01 71 1012.3
20260903153036 83 24 5.0 9.0 0.00 0.01 0.01 72 1009.3
20260903152735 84 355 6.0 9.0 0.00 0.01 0.01 72 1012.3
20260903152245 83 134 2.0 9.0 0.00 0.01 0.01 70 1012.2
20260903151728 83 131 4.0 10.0 0.00 0.01 0.01 72 1011.9
20260903151546 82 126 4.0 10.0 0.00 0.01 0.01 71 1008.9
20260903151240 83 145 6.0 10.0 0.00 0.01 0.01 72 1011.9
20260903150723 82 136 4.0 7.0 0.00 0.01 0.01 74 1011.8
20260903150234 82 135 4.0 9.0 0.00 0.01 0.01 73 1011.9
20260903150105 81 148 3.0 9.0 0.00 0.01 0.01 72 1008.8
20260903145747 82 171 5.0 11.0 0.00 0.01 0.01 74 1011.8
20260903145257 82 157 6.0 11.0 0.00 0.01 0.01 73 1011.8
20260903144743 81 158 7.0 12.0 0.00 0.01 0.01 72 1011.8
20260903144615 81 163 7.0 12.0 0.00 0.01 0.01 72 1008.8
20260903144229 81 142 7.0 12.0 0.00 0.01 0.01 72 1011.7
20260903143758 81 167 9.0 12.0 0.00 0.01 0.01 72 1011.7
20260903143249 81 187 7.0 11.0 0.00 0.01 0.01 72 1011.7
20260903143028 81 160 6.0 13.0 0.00 0.01 0.01 72 1008.8
20260903142740 81 166 7.0 13.0 0.00 0.01 0.01 72 1011.8
20260903142224 81 131 8.0 13.0 0.00 0.01 0.01 71 1011.8
20260903141735 81 130 8.0 11.0 0.00 0.01 0.01 71 1011.9
20260903141528 81 144 6.0 10.0 0.00 0.01 0.01 72 1008.8
20260903141305 81 130 6.0 10.0 0.00 0.01 0.01 71 1011.8
20260903140726 81 130 6.0 9.0 0.00 0.01 0.01 72 1011.8
20260903140238 81 128 5.0 9.0 0.00 0.01 0.01 72 1011.9
20260903140056 81 118 5.0 9.0 0.00 0.01 0.01 72 1009.0
20260903140008 81 121 5.0 9.0 0.00 0.01 0.01 72 1009.0
20260903135721 81 126 6.0 9.0 0.00 0.01 0.01 72 1012.0
20260903135233 81 97 6.0 9.0 0.00 0.01 0.01 73 1011.9
20260903134746 81 107 5.0 9.0 0.00 0.01 0.01 73 1011.9
20260903134621 80 119 6.0 9.0 0.00 0.01 0.01 74 1008.9
20260903134230 81 111 6.0 10.0 0.00 0.01 0.01 74 1011.9
20260903133738 80 115 7.0 10.0 0.00 0.01 0.01 74 1011.9
20260903133245 80 106 5.0 8.0 0.00 0.01 0.01 73 1011.9
20260903133012 80 132 3.0 7.0 0.00 0.01 0.01 72 1009.0
20260903132727 80 112 4.0 9.0 0.00 0.01 0.01 72 1011.9
20260903132239 80 132 4.0 9.0 0.00 0.01 0.01 70 1011.8
20260903131723 80 149 4.0 7.0 0.00 0.01 0.01 70 1011.9
20260903131525 80 149 4.0 7.0 0.00 0.01 0.01 70 1009.0
20260903131236 80 155 4.0 6.0 0.00 0.01 0.01 71 1011.9
20260903130807 80 128 3.0 5.0 0.00 0.01 0.01 70 1011.9
20260903130228 80 132 2.0 7.0 0.00 0.01 0.01 70 1012.0
20260903130101 79 95 2.0 7.0 0.00 0.01 0.01 70 1009.0
20260903125736 80 96 4.0 7.0 0.00 0.01 0.01 70 1011.9
20260903125247 80 147 2.0 4.0 0.00 0.01 0.01 70 1012.1
20260903124728 80 147 1.0 4.0 0.00 0.01 0.01 70 1012.2
20260903124549 79 147 1.0 7.0 0.00 0.01 0.01 69 1009.1
20260903124241 80 147 3.0 9.0 0.00 0.01 0.01 70 1012.0
20260903123749 80 189 5.0 9.0 0.00 0.01 0.01 70 1012.0
20260903123240 80 161 6.0 8.0 0.00 0.01 0.01 70 1012.0
20260903123027 79 152 4.0 7.0 0.00 0.01 0.01 70 1008.9
20260903122722 80 191 5.0 9.0 0.00 0.01 0.01 70 1011.9
20260903122228 80 187 6.0 12.0 0.00 0.01 0.01 70 1011.8
20260903121738 80 172 7.0 12.0 0.00 0.01 0.01 70 1011.7
20260903121528 79 178 5.0 9.0 0.00 0.01 0.01 70 1008.7
20260903121252 80 169 5.0 9.0 0.00 0.01 0.01 70 1011.6
20260903120734 80 163 5.0 8.0 0.00 0.01 0.01 70 1011.6
20260903120244 79 198 4.0 10.0 0.00 0.01 0.01 70 1011.6
20260903120031 79 225 4.0 11.0 0.00 0.01 0.01 70 1008.6
20260903115725 79 176 6.0 11.0 0.00 0.01 0.01 70 1011.6
20260903115236 79 194 6.0 11.0 0.00 0.01 0.01 71 1011.5
20260903114746 79 178 5.0 12.0 0.00 0.01 0.01 71 1011.4
20260903114539 79 202 7.0 12.0 0.00 0.01 0.01 71 1008.5
20260903114227 79 182 7.0 12.0 0.00 0.01 0.01 71 1011.4
20260903113736 79 186 6.0 11.0 0.00 0.01 0.01 72 1011.4
20260903113247 79 202 7.0 10.0 0.00 0.01 0.01 72 1011.3
20260903113050 78 146 6.0 12.0 0.00 0.01 0.01 72 1008.4
20260903112730 79 186 7.0 11.0 0.00 0.01 0.01 72 1011.3
20260903112241 78 164 8.0 18.0 0.00 0.01 0.01 73 1011.2
20260903111725 78 167 11.0 18.0 0.00 0.01 0.01 73 1011.2
20260903111546 78 159 11.0 18.0 0.00 0.01 0.01 73 1008.2
20260903111257 78 173 9.0 15.0 0.01 0.01 0.01 74 1011.2
20260903110743 78 198 8.0 15.0 0.01 0.01 0.01 74 1011.2
20260903110226 78 198 7.0 16.0 0.01 0.01 0.01 74 1011.2
20260903110021 77 186 7.0 16.0 0.01 0.01 0.01 74 1008.3
20260903105756 78 181 9.0 16.0 0.01 0.01 0.01 75 1011.3
20260903105245 78 202 6.0 11.0 0.01 0.01 0.01 75 1011.4
20260903104727 78 187 6.0 10.0 0.01 0.01 0.01 75 1011.5
20260903104615 77 192 5.0 10.0 0.01 0.01 0.01 75 1008.5
20260903104300 78 165 6.0 10.0 0.01 0.01 0.01 75 1011.4
20260903103749 78 174 6.0 10.0 0.01 0.01 0.01 74 1011.4
20260903103227 78 190 5.0 9.0 0.01 0.01 0.01 75 1011.4
20260903103042 78 187 5.0 9.0 0.01 0.01 0.01 75 1008.5
20260903102737 78 156 7.0 10.0 0.01 0.01 0.01 74 1011.4
20260903102249 78 191 5.0 10.0 0.01 0.01 0.01 74 1011.4
20260903101739 78 198 5.0 8.0 0.01 0.01 0.01 74 1011.3
20260903101520 78 162 6.0 9.0 0.01 0.01 0.01 74 1008.5
20260903101251 78 171 6.0 9.0 0.00 0.00 0.00 73 1011.4
20260903100732 78 170 7.0 11.0 0.00 0.00 0.00 73 1011.3
20260903100243 78 167 8.0 11.0 0.00 0.00 0.00 73 1011.1
20260903100056 78 172 9.0 11.0 0.00 0.00 0.00 73 1008.3
20260903095749 78 175 9.0 11.0 0.00 0.00 0.00 73 1011.1
20260903095230 78 155 8.0 11.0 0.00 0.00 0.00 72 1011.2
20260903094742 78 166 9.0 15.0 0.00 0.00 0.00 73 1011.2
20260903094604 78 175 8.0 15.0 0.00 0.00 0.00 73 1008.3
20260903094227 79 166 10.0 15.0 0.00 0.00 0.00 72 1011.2
20260903093739 79 184 9.0 11.0 0.00 0.00 0.00 73 1011.2
20260903093222 79 159 8.0 11.0 0.00 0.00 0.00 72 1011.3
20260903093049 78 165 8.0 11.0 0.00 0.00 0.00 72 1008.4
20260903092734 79 180 8.0 11.0 0.00 0.00 0.00 72 1011.3
20260903092245 79 150 8.0 11.0 0.00 0.00 0.00 72 1011.3
20260903091724 79 167 9.0 10.0 0.00 0.00 0.00 72 1011.3
20260903091613 79 162 8.0 12.0 0.00 0.00 0.00 72 1008.4
20260903091236 79 173 9.0 14.0 0.00 0.00 0.00 72 1011.3
20260903090745 79 170 9.0 14.0 0.00 0.00 0.00 72 1011.3
20260903090228 79 171 9.0 15.0 0.00 0.00 0.00 71 1011.3
20260903090058 79 182 9.0 15.0 0.00 0.00 0.00 71 1008.4
20260903085740 79 200 8.0 12.0 0.00 0.00 0.00 70 1011.3
20260903085223 79 166 8.0 10.0 0.00 0.00 0.00 70 1011.3
20260903084759 79 203 8.0 12.0 0.00 0.00 0.00 70 1011.3
20260903084543 79 159 8.0 12.0 0.00 0.00 0.00 70 1008.5
20260903084249 79 190 9.0 12.0 0.00 0.00 0.00 70 1011.3
20260903083800 79 183 8.0 13.0 0.00 0.00 0.00 70 1011.3
20260903083247 79 178 8.0 12.0 0.00 0.00 0.00 70 1011.3
20260903083014 79 172 9.0 12.0 0.00 0.00 0.00 70 1008.5
20260903082805 79 158 8.0 14.0 0.00 0.00 0.00 70 1011.3
20260903082319 79 173 8.0 14.0 0.00 0.00 0.00 70 1011.3
20260903081741 79 175 9.0 16.0 0.00 0.00 0.00 70 1011.3
20260903081508 79 186 8.0 16.0 0.00 0.00 0.00 70 1008.4
20260903081225 79 167 9.0 16.0 0.00 0.00 0.00 70 1011.2
20260903080736 79 188 8.0 12.0 0.00 0.00 0.00 70 1011.3
20260903080247 79 180 8.0 11.0 0.00 0.00 0.00 70 1011.3
20260903080014 79 163 7.0 11.0 0.00 0.00 0.00 70 1008.4
20260903075731 80 171 8.0 10.0 0.00 0.00 0.00 70 1011.3
20260903075302 80 173 7.0 12.0 0.00 0.00 0.00 70 1011.3
20260903074727 80 178 8.0 14.0 0.00 0.00 0.00 69 1011.3
20260903074551 79 184 8.0 14.0 0.00 0.00 0.00 70 1008.4
20260903074239 80 174 8.0 14.0 0.00 0.00 0.00 70 1011.3
20260903073745 80 165 8.0 12.0 0.00 0.00 0.00 70 1011.3
20260903073232 80 180 9.0 14.0 0.00 0.00 0.00 70 1011.3
20260903073032 79 176 8.0 14.0 0.00 0.00 0.00 69 1008.4
20260903072744 80 151 8.0 10.0 0.00 0.00 0.00 69 1011.2
20260903072227 80 196 8.0 12.0 0.00 0.00 0.00 69 1011.2
20260903071738 80 159 8.0 12.0 0.00 0.00 0.00 69 1011.3
20260903071536 80 188 8.0 12.0 0.00 0.00 0.00 69 1008.4
20260903071250 80 171 8.0 12.0 0.00 0.00 0.00 69 1011.3
20260903070730 80 188 8.0 12.0 0.00 0.00 0.00 69 1011.3
20260903070257 80 182 8.0 12.0 0.00 0.00 0.00 68 1011.2
20260903070013 80 185 8.0 11.0 0.00 0.00 0.00 68 1008.4
20260903065746 80 180 8.0 11.0 0.00 0.00 0.00 68 1011.3
20260903065228 81 179 8.0 14.0 0.00 0.00 0.00 68 1011.4
20260903064738 81 169 9.0 12.0 0.00 0.00 0.00 68 1011.4
20260903064522 80 178 8.0 12.0 0.00 0.00 0.00 68 1008.5
20260903064223 81 175 8.0 12.0 0.00 0.00 0.00 68 1011.4
20260903063733 81 186 8.0 12.0 0.00 0.00 0.00 68 1011.4
20260903063244 81 175 9.0 15.0 0.00 0.00 0.00 68 1011.3
20260903063026 81 155 8.0 15.0 0.00 0.00 0.00 67 1008.5
20260903062726 81 161 8.0 15.0 0.00 0.00 0.00 67 1011.3
20260903062233 81 198 9.0 13.0 0.00 0.00 0.00 67 1011.3
20260903061746 81 172 8.0 13.0 0.00 0.00 0.00 67 1011.3
20260903061505 81 174 8.0 13.0 0.00 0.00 0.00 67 1008.5
20260903061237 81 167 9.0 13.0 0.00 0.00 0.00 67 1011.4
20260903060747 81 159 9.0 13.0 0.00 0.00 0.00 67 1011.3
20260903060229 81 144 10.0 16.0 0.00 0.00 0.00 67 1011.4
20260903060013 81 143 9.0 16.0 0.00 0.00 0.00 67 1008.5
20260903055740 81 150 8.0 16.0 0.00 0.00 0.00 67 1011.4
20260903055222 82 151 9.0 12.0 0.00 0.00 0.00 67 1011.4
20260903054729 82 171 9.0 13.0 0.00 0.00 0.00 67 1011.4
20260903054511 81 178 9.0 13.0 0.00 0.00 0.00 67 1008.6
20260903054242 82 171 8.0 14.0 0.00 0.00 0.00 67 1011.3
20260903053723 82 162 8.0 14.0 0.00 0.00 0.00 67 1011.3
20260903053236 82 175 9.0 14.0 0.00 0.00 0.00 66 1011.4
20260903053028 81 160 8.0 15.0 0.00 0.00 0.00 66 1008.5
20260903052746 82 170 8.0 12.0 0.00 0.00 0.00 66 1011.4
20260903052229 82 140 8.0 12.0 0.00 0.00 0.00 66 1011.4
20260903051741 82 158 9.0 12.0 0.00 0.00 0.00 65 1011.4
20260903051519 82 202 8.0 12.0 0.00 0.00 0.00 65 1008.5
20260903051254 82 156 8.0 12.0 0.00 0.00 0.00 65 1011.4
20260903050734 83 169 10.0 14.0 0.00 0.00 0.00 65 1011.3
20260903050243 83 157 10.0 14.0 0.00 0.00 0.00 64 1011.4
20260903050100 82 137 7.0 12.0 0.00 0.00 0.00 64 1008.5
20260903045747 83 165 8.0 13.0 0.00 0.00 0.00 64 1011.4
20260903045231 83 158 9.0 13.0 0.00 0.00 0.00 63 1011.4
20260903044741 83 155 9.0 14.0 0.00 0.00 0.00 63 1011.4
20260903044604 83 163 8.0 14.0 0.00 0.00 0.00 63 1008.6
20260903044255 83 144 10.0 14.0 0.00 0.00 0.00 63 1011.4
20260903043745 83 147 10.0 16.0 0.00 0.00 0.00 63 1011.4
20260903043224 83 148 12.0 19.0 0.00 0.00 0.00 62 1011.3
20260903043038 83 158 10.0 19.0 0.00 0.00 0.00 63 1008.5
20260903042736 83 156 11.0 19.0 0.00 0.00 0.00 63 1011.3
20260903042247 83 157 10.0 17.0 0.00 0.00 0.00 62 1011.3
20260903041729 84 184 11.0 16.0 0.00 0.00 0.00 62 1011.2
20260903041553 83 169 11.0 17.0 0.00 0.00 0.00 62 1008.4
20260903041243 84 164 11.0 18.0 0.00 0.00 0.00 62 1011.3
20260903040724 84 178 10.0 19.0 0.00 0.00 0.00 62 1011.3
20260903040236 84 175 12.0 19.0 0.00 0.00 0.00 62 1011.3
20260903040053 83 200 12.0 17.0 0.00 0.00 0.00 62 1008.5
20260903035721 84 157 11.0 19.0 0.00 0.00 0.00 62 1011.3
20260903035251 84 146 11.0 17.0 0.00 0.00 0.00 63 1011.3
20260903034742 84 169 11.0 17.0 0.00 0.00 0.00 63 1011.3
20260903034534 83 150 11.0 18.0 0.00 0.00 0.00 63 1008.4
20260903034225 84 136 10.0 18.0 0.00 0.00 0.00 63 1011.3
20260903033736 84 175 11.0 18.0 0.00 0.00 0.00 63 1011.3
20260903033246 83 152 10.0 21.0 0.00 0.00 0.00 63 1011.3
20260903033034 83 163 11.0 21.0 0.00 0.00 0.00 63 1008.4
20260903032729 83 176 11.0 21.0 0.00 0.00 0.00 63 1011.3
20260903032239 84 165 10.0 15.0 0.00 0.00 0.00 63 1011.3
20260903031724 84 184 10.0 15.0 0.00 0.00 0.00 63 1011.3
20260903031538 83 149 9.0 15.0 0.00 0.00 0.00 63 1008.4
20260903031233 84 169 9.0 15.0 0.00 0.00 0.00 63 1011.3
20260903030743 84 160 10.0 16.0 0.00 0.00 0.00 63 1011.3
20260903030225 84 168 10.0 16.0 0.00 0.00 0.00 63 1011.3
20260903030038 83 167 10.0 16.0 0.00 0.00 0.00 63 1008.5
20260903025737 84 147 9.0 15.0 0.00 0.00 0.00 63 1011.3
20260903025222 84 159 11.0 15.0 0.00 0.00 0.00 63 1011.3
20260903024733 84 138 10.0 15.0 0.00 0.00 0.00 63 1011.2
20260903024542 84 160 10.0 15.0 0.00 0.00 0.00 63 1008.4
20260903024247 84 173 10.0 15.0 0.00 0.00 0.00 62 1011.2
20260903023727 84 165 10.0 14.0 0.00 0.00 0.00 62 1011.2
20260903023235 85 161 10.0 14.0 0.00 0.00 0.00 62 1011.2
20260903023050 84 161 9.0 14.0 0.00 0.00 0.00 62 1008.3
20260903022809 85 176 10.0 15.0 0.00 0.00 0.00 62 1011.1
20260903022232 85 180 9.0 14.0 0.00 0.00 0.00 62 1011.1
20260903021745 85 166 9.0 14.0 0.00 0.00 0.00 62 1011.1
20260903021523 85 159 7.0 14.0 0.00 0.00 0.00 62 1008.2
20260903021229 85 173 7.0 14.0 0.00 0.00 0.00 62 1011.0
20260903020738 86 148 9.0 12.0 0.00 0.00 0.00 61 1010.9
20260903020223 86 171 8.0 11.0 0.00 0.00 0.00 61 1010.9
20260903020032 86 136 7.0 11.0 0.00 0.00 0.00 61 1008.0
20260903015729 86 153 7.0 11.0 0.00 0.00 0.00 61 1010.8
20260903015239 87 168 8.0 13.0 0.00 0.00 0.00 60 1010.8
20260903014750 87 138 8.0 13.0 0.00 0.00 0.00 60 1010.8
20260903014520 87 140 7.0 11.0 0.00 0.00 0.00 59 1007.9
20260903014302 87 155 7.0 12.0 0.00 0.00 0.00 59 1010.8
20260903013721 88 164 7.0 12.0 0.00 0.00 0.00 59 1010.8
20260903013233 88 171 8.0 14.0 0.00 0.00 0.00 58 1010.7
20260903013101 88 165 7.0 14.0 0.00 0.00 0.00 58 1007.8
20260903013002 88 151 7.0 14.0 0.00 0.00 0.00 58 1007.8
20260903012745 88 153 9.0 14.0 0.00 0.00 0.00 58 1010.7
20260903012233 89 139 8.0 14.0 0.00 0.00 0.00 57 1010.6
20260903011743 89 155 8.0 13.0 0.00 0.00 0.00 57 1010.6
20260903011546 89 166 7.0 13.0 0.00 0.00 0.00 57 1007.6
20260903011229 90 186 7.0 12.0 0.00 0.00 0.00 56 1010.5
20260903010737 90 172 8.0 12.0 0.00 0.00 0.00 56 1010.6
20260903010221 91 150 7.0 12.0 0.00 0.00 0.00 55 1010.6
20260903010046 91 145 8.0 12.0 0.00 0.00 0.00 55 1007.6
20260903005732 91 184 8.0 12.0 0.00 0.00 0.00 55 1010.6
20260903005244 92 168 7.0 10.0 0.00 0.00 0.00 54 1010.5
20260903004726 92 168 7.0 10.0 0.00 0.00 0.00 53 1010.6
20260903004546 92 142 6.0 10.0 0.00 0.00 0.00 53 1007.6
20260903004235 93 162 6.0 10.0 0.00 0.00 0.00 53 1010.6
20260903003746 94 150 7.0 12.0 0.00 0.00 0.00 52 1010.6
20260903003230 94 142 8.0 12.0 0.00 0.00 0.00 51 1010.6
20260903003050 94 143 8.0 12.0 0.00 0.00 0.00 51 1007.7
20260903002741 95 168 7.0 10.0 0.00 0.00 0.00 51 1010.7
20260903002225 95 178 7.0 10.0 0.00 0.00 0.00 51 1010.6
20260903001736 96 163 7.0 11.0 0.00 0.00 0.00 50 1010.6
20260903001550 95 174 6.0 9.0 0.00 0.00 0.00 50 1007.7
20260903001249 96 153 6.0 10.0 0.00 0.00 0.00 49 1010.7
20260903000731 96 168 7.0 10.0 0.00 0.00 0.00 49 1010.7
20260903000240 97 180 7.0 10.0 0.00 0.00 0.00 48 1010.7
20260903000040 96 186 6.0 10.0 0.00 0.00 0.00 48 1007.7
20260902235810 97 161 7.0 10.0 0.00 0.00 0.00 48 1010.7
20260902235233 97 201 5.0 9.0 0.00 0.00 0.00 48 1010.7
20260902234745 97 195 6.0 11.0 0.00 0.00 0.00 48 1010.7
20260902234521 97 198 5.0 11.0 0.00 0.00 0.00 48 1007.8
20260902234229 98 167 6.0 11.0 0.00 0.00 0.00 48 1010.7
20260902233759 98 197 6.0 10.0 0.00 0.00 0.00 48 1010.8
20260902233221 98 182 7.0 9.0 0.00 0.00 0.00 48 1010.7
20260902233006 97 174 6.0 9.0 0.00 0.00 0.00 48 1007.7
20260902232810 98 182 5.0 8.0 0.00 0.00 0.00 48 1010.7
20260902232231 98 198 4.0 10.0 0.00 0.00 0.00 49 1010.7
20260902231803 98 171 7.0 10.0 0.00 0.00 0.00 48 1010.7
20260902231526 98 201 5.0 12.0 0.00 0.00 0.00 47 1007.7
20260902231225 98 163 6.0 12.0 0.00 0.00 0.00 48 1010.6
20260902230733 98 200 8.0 12.0 0.00 0.00 0.00 47 1010.7
20260902230244 98 173 6.0 10.0 0.00 0.00 0.00 47 1010.7
20260902230026 98 200 6.0 10.0 0.00 0.00 0.00 48 1007.7
20260902225721 98 192 5.0 11.0 0.00 0.00 0.00 48 1010.7
20260902225233 99 221 6.0 13.0 0.00 0.00 0.00 48 1010.7
20260902224743 98 161 7.0 13.0 0.00 0.00 0.00 47 1010.7
20260902224528 98 189 6.0 11.0 0.00 0.00 0.00 48 1007.7
20260902224229 98 194 7.0 12.0 0.00 0.00 0.00 48 1010.8
20260902223739 98 167 7.0 15.0 0.00 0.00 0.00 47 1010.8
20260902223250 98 217 8.0 15.0 0.00 0.00 0.00 46 1010.7
20260902223006 98 204 8.0 16.0 0.00 0.00 0.00 46 1007.8
20260902222741 98 201 7.0 14.0 0.00 0.00 0.00 46 1010.8
20260902222224 98 198 8.0 16.0 0.00 0.00 0.00 46 1010.8
20260902221731 98 164 10.0 16.0 0.00 0.00 0.00 46 1010.8
20260902221547 97 218 7.0 16.0 0.00 0.00 0.00 47 1007.9
20260902221244 98 207 11.0 21.0 0.00 0.00 0.00 46 1010.8
20260902220724 98 189 13.0 21.0 0.00 0.00 0.00 45 1010.8
20260902220246 98 227 9.0 15.0 0.00 0.00 0.00 47 1010.8
20260902220041 98 211 11.0 16.0 0.00 0.00 0.00 45 1007.9
20260902215728 99 218 10.0 16.0 0.00 0.00 0.00 46 1010.9
20260902215238 99 178 12.0 19.0 0.00 0.00 0.00 45 1010.9
20260902214722 99 215 13.0 19.0 0.00 0.00 0.00 45 1010.9
20260902214537 99 204 11.0 19.0 0.00 0.00 0.00 45 1007.9
20260902214231 99 191 13.0 22.0 0.00 0.00 0.00 45 1010.8
20260902213741 100 204 13.0 19.0 0.00 0.00 0.00 44 1011.0
20260902213224 100 181 11.0 19.0 0.00 0.00 0.00 44 1010.9
20260902213041 100 180 11.0 20.0 0.00 0.00 0.00 44 1008.1
20260902212756 100 158 11.0 20.0 0.00 0.00 0.00 44 1011.0
20260902212247 100 210 13.0 20.0 0.00 0.00 0.00 44 1011.0
20260902211726 101 179 10.0 21.0 0.00 0.00 0.00 43 1011.0
20260902211523 100 170 11.0 18.0 0.00 0.00 0.00 45 1008.0
20260902211255 101 206 12.0 17.0 0.00 0.00 0.00 45 1011.1
20260902210743 100 164 9.0 16.0 0.00 0.00 0.00 46 1011.0
20260902210227 100 159 10.0 18.0 0.00 0.00 0.00 45 1011.1
20260902210115 100 181 10.0 18.0 0.00 0.00 0.00 45 1008.2
20260902205738 100 159 11.0 18.0 0.00 0.00 0.00 46 1011.2
20260902205249 100 196 8.0 17.0 0.00 0.00 0.00 47 1011.2
20260902204731 99 212 11.0 19.0 0.00 0.00 0.00 48 1011.3
20260902204547 99 180 8.0 19.0 0.00 0.00 0.00 47 1008.3
20260902204304 99 174 11.0 19.0 0.00 0.00 0.00 46 1011.3
20260902203727 99 205 9.0 17.0 0.00 0.00 0.00 47 1011.4
20260902203234 99 193 11.0 21.0 0.00 0.00 0.00 44 1011.3
20260902203037 98 212 11.0 21.0 0.00 0.00 0.00 45 1008.4
20260902202745 99 213 15.0 21.0 0.00 0.00 0.00 43 1011.3
20260902202227 99 203 14.0 20.0 0.00 0.00 0.00 43 1011.4
20260902201739 99 195 12.0 18.0 0.00 0.00 0.00 44 1011.5
20260902201550 99 163 11.0 16.0 0.00 0.00 0.00 44 1008.5
20260902201251 99 190 11.0 18.0 0.00 0.00 0.00 47 1011.5
20260902200731 98 178 10.0 22.0 0.00 0.00 0.00 46 1011.5
20260902200242 98 225 9.0 22.0 0.00 0.00 0.00 46 1011.6
20260902200025 98 190 13.0 22.0 0.00 0.00 0.00 45 1008.6
20260902195728 98 196 12.0 21.0 0.00 0.00 0.00 44 1011.6
20260902195239 98 213 14.0 21.0 0.00 0.00 0.00 44 1011.7
20260902194809 98 177 12.0 21.0 0.00 0.00 0.00 46 1011.7
20260902194557 97 179 12.0 21.0 0.00 0.00 0.00 45 1008.7
20260902194233 97 214 12.0 21.0 0.00 0.00 0.00 47 1011.7
20260902193743 97 188 13.0 21.0 0.00 0.00 0.00 47 1011.7
20260902193226 96 174 12.0 17.0 0.00 0.00 0.00 51 1011.8
20260902193055 96 219 10.0 15.0 0.00 0.00 0.00 50 1008.8
20260902192756 96 211 9.0 18.0 0.00 0.00 0.00 48 1011.9
20260902192243 96 185 9.0 18.0 0.00 0.00 0.00 49 1011.9
20260902191724 97 205 10.0 17.0 0.00 0.00 0.00 48 1011.9
20260902191544 96 175 8.0 14.0 0.00 0.00 0.00 49 1009.0
20260902191257 97 186 8.0 14.0 0.00 0.00 0.00 49 1011.9
20260902190747 96 192 10.0 17.0 0.00 0.00 0.00 48 1012.0
20260902190229 96 200 8.0 20.0 0.00 0.00 0.00 49 1012.0
20260902190015 96 202 11.0 20.0 0.00 0.00 0.00 48 1009.1
20260902185831 97 186 12.0 20.0 0.00 0.00 0.00 48 1012.1
20260902185321 97 211 8.0 18.0 0.00 0.00 0.00 48 1012.2
20260902184746 97 196 12.0 18.0 0.00 0.00 0.00 46 1012.2
20260902184509 96 211 12.0 19.0 0.00 0.00 0.00 47 1009.2
20260902184236 97 161 12.0 19.0 0.00 0.00 0.00 47 1012.2
20260902183745 97 171 11.0 19.0 0.00 0.00 0.00 48 1012.3
20260902183230 97 200 12.0 22.0 0.00 0.00 0.00 49 1012.3
20260902183017 96 182 13.0 22.0 0.00 0.00 0.00 47 1009.3
20260902182801 97 204 14.0 22.0 0.00 0.00 0.00 47 1012.3
20260902182307 97 191 12.0 19.0 0.00 0.00 0.00 48 1012.3
20260902181728 96 217 11.0 22.0 0.00 0.00 0.00 48 1012.4
20260902181540 96 211 12.0 22.0 0.00 0.00 0.00 45 1009.4
20260902181241 97 202 15.0 22.0 0.00 0.00 0.00 45 1012.4
20260902180722 96 157 14.0 21.0 0.00 0.00 0.00 46 1012.4
20260902180234 96 202 12.0 21.0 0.00 0.00 0.00 48 1012.4
20260902180030 95 189 13.0 21.0 0.00 0.00 0.00 49 1009.4
20260902175745 95 207 10.0 19.0 0.00 0.00 0.00 50 1012.5
20260902175226 95 200 12.0 22.0 0.00 0.00 0.00 48 1012.5
20260902174733 94 215 15.0 22.0 0.00 0.00 0.00 48 1012.5
20260902174536 93 211 13.0 24.0 0.00 0.00 0.00 50 1009.7
20260902174246 94 194 13.0 18.0 0.00 0.00 0.00 49 1012.7
20260902173727 94 209 9.0 16.0 0.00 0.00 0.00 52 1012.7
20260902173238 94 178 10.0 20.0 0.00 0.00 0.00 50 1012.8
20260902173035 94 204 11.0 20.0 0.00 0.00 0.00 50 1009.9
20260902172749 94 186 11.0 20.0 0.00 0.00 0.00 50 1012.8
20260902172232 95 198 10.0 18.0 0.00 0.00 0.00 49 1012.8
20260902171744 94 173 10.0 15.0 0.00 0.00 0.00 51 1013.0